When you browse on this site, cookies collect data to enhance your experience and personalize the content and advertising you see.
Visit our Privacy Policy to learn more. By continuing to use the site, you agree to this use of cookies and data.
  • In Portugal
  • List of Countries
  • For 7 days
  • Water Temperature
  • Satellite Maps
  • Weather Map
  • Weather Widgets
  • user-avatar
    Login

    Hourly Weather Barlewiczki

    Today, 19 February, Tuesday

    Time Temperature Precipitation Wind Pressure Humidity
    00:00 +2°C° 0 mm 3 mps 758 mmHg 85%
    01:00 +2°C° 0 mm 3 mps 757 mmHg 85%
    02:00 +2°C° 0 mm 3 mps 757 mmHg 84%
    03:00 +2°C° 0 mm 3 mps 756 mmHg 84%
    04:00 +1°C° 0 mm 3 mps 756 mmHg 83%
    05:00 0°C° 0 mm 4 mps 755 mmHg 84%
    06:00 0°C° 0 mm 4 mps 755 mmHg 84%
    07:00 0°C° 0 mm 4 mps 755 mmHg 84%
    08:00 +1°C° 0 mm 5 mps 754 mmHg 79%
    09:00 +3°C° 0 mm 5 mps 754 mmHg 75%
    10:00 +4°C° 0 mm 6 mps 754 mmHg 70%
    11:00 +5°C° 0 mm 6 mps 754 mmHg 68%
    12:00 +7°C° 0 mm 6 mps 753 mmHg 67%
    13:00 +8°C° 0 mm 6 mps 753 mmHg 65%
    14:00 +8°C° 0.1 mm 6 mps 753 mmHg 69%
    15:00 +8°C° 0.1 mm 5 mps 753 mmHg 73%
    16:00 +7°C° 0.1 mm 5 mps 753 mmHg 78%
    17:00 +7°C° 0.1 mm 4 mps 753 mmHg 79%
    18:00 +6°C° 0.1 mm 4 mps 753 mmHg 81%
    19:00 +5°C° 0.1 mm 4 mps 753 mmHg 82%
    20:00 +5°C° 0.1 mm 4 mps 753 mmHg 82%
    21:00 +5°C° 0.1 mm 4 mps 753 mmHg 81%
    22:00 +5°C° 0.1 mm 4 mps 753 mmHg 80%
    23:00 +5°C° 0 mm 5 mps 753 mmHg 81%

    Tomorrow, 20 February, Wednesday

    Time Temperature Precipitation Wind Pressure Humidity
    00:00 +5°C° 0 mm 5 mps 753 mmHg 81%
    01:00 +3°C° 0 mm 5 mps 753 mmHg 82%
    02:00 +3°C° 0.1 mm 5 mps 753 mmHg 81%
    03:00 +3°C° 0.1 mm 5 mps 753 mmHg 80%
    04:00 +3°C° 0.1 mm 5 mps 753 mmHg 78%
    05:00 +3°C° 0.1 mm 5 mps 753 mmHg 78%
    06:00 +3°C° 0.1 mm 5 mps 754 mmHg 78%
    07:00 +3°C° 0.1 mm 6 mps 754 mmHg 77%
    08:00 +3°C° 0 mm 6 mps 754 mmHg 75%
    09:00 +3°C° 0 mm 7 mps 755 mmHg 72%
    10:00 +4°C° 0 mm 8 mps 755 mmHg 69%
    11:00 +4°C° 0 mm 8 mps 756 mmHg 69%
    12:00 +4°C° 0 mm 8 mps 756 mmHg 68%
    13:00 +4°C° 0 mm 8 mps 757 mmHg 68%
    14:00 +4°C° 0 mm 7 mps 757 mmHg 68%
    15:00 +4°C° 0 mm 7 mps 757 mmHg 69%
    16:00 +4°C° 0 mm 6 mps 758 mmHg 70%
    17:00 +3°C° 0 mm 6 mps 758 mmHg 73%
    18:00 +3°C° 0 mm 5 mps 759 mmHg 76%
    19:00 +3°C° 0 mm 4 mps 759 mmHg 79%
    20:00 +3°C° 0 mm 4 mps 759 mmHg 82%
    21:00 +2°C° 0 mm 3 mps 759 mmHg 86%
    22:00 +2°C° 0 mm 3 mps 760 mmHg 90%
    23:00 +1°C° 0 mm 3 mps 760 mmHg 91%

    Day after tomorrow, 21 February, Thursday

    Time Temperature Precipitation Wind Pressure Humidity
    00:00 +1°C° 0 mm 3 mps 760 mmHg 93%
    01:00 +2°C° 0 mm 2 mps 760 mmHg 94%
    02:00 +2°C° 0.3 mm 2 mps 760 mmHg 95%
    03:00 +3°C° 0.3 mm 2 mps 759 mmHg 95%
    04:00 +3°C° 0.3 mm 2 mps 759 mmHg 96%
    05:00 +3°C° 0.5 mm 2 mps 759 mmHg 96%
    06:00 +4°C° 0.5 mm 2 mps 759 mmHg 96%
    07:00 +3°C° 0.5 mm 3 mps 759 mmHg 96%
    08:00 +3°C° 0.3 mm 3 mps 759 mmHg 95%
    09:00 +4°C° 0.3 mm 3 mps 759 mmHg 93%
    10:00 +4°C° 0.3 mm 3 mps 759 mmHg 92%
    11:00 +5°C° 0.4 mm 3 mps 759 mmHg 91%
    12:00 +5°C° 0.4 mm 3 mps 759 mmHg 90%
    13:00 +5°C° 0.4 mm 3 mps 759 mmHg 90%
    14:00 +6°C° 0.5 mm 2 mps 759 mmHg 91%
    15:00 +6°C° 0.5 mm 2 mps 758 mmHg 93%
    16:00 +6°C° 0.5 mm 2 mps 758 mmHg 94%
    17:00 +5°C° 0.2 mm 2 mps 759 mmHg 94%
    18:00 +4°C° 0.2 mm 3 mps 759 mmHg 93%
    19:00 +3°C° 0.2 mm 4 mps 760 mmHg 93%
    20:00 +1°C° 0.2 mm 4 mps 760 mmHg 91%
    21:00 0°C° 0.2 mm 5 mps 761 mmHg 89%
    22:00 -1°C° 0.2 mm 5 mps 762 mmHg 87%
    23:00 -2°C° 0.1 mm 5 mps 762 mmHg 86%

    22 February, Friday

    Time Temperature Precipitation Wind Pressure Humidity
    00:00 -2°C° 0.1 mm 5 mps 763 mmHg 85%
    01:00 -4°C° 0.1 mm 5 mps 764 mmHg 85%
    02:00 -4°C° 0 mm 5 mps 765 mmHg 82%
    03:00 -3°C° 0 mm 4 mps 766 mmHg 79%
    04:00 -4°C° 0 mm 4 mps 767 mmHg 76%
    05:00 -4°C° 0 mm 4 mps 768 mmHg 74%
    06:00 -4°C° 0 mm 4 mps 769 mmHg 72%
    07:00 -4°C° 0 mm 4 mps 770 mmHg 70%
    08:00 -5°C° 0 mm 5 mps 771 mmHg 65%
    09:00 -5°C° 0 mm 5 mps 772 mmHg 60%
    10:00 -4°C° 0 mm 5 mps 773 mmHg 55%
    11:00 -4°C° 0 mm 5 mps 774 mmHg 52%
    12:00 -3°C° 0 mm 4 mps 774 mmHg 49%
    13:00 -2°C° 0 mm 4 mps 775 mmHg 47%
    14:00 -3°C° 0 mm 4 mps 775 mmHg 47%
    15:00 -2°C° 0 mm 3 mps 776 mmHg 48%
    16:00 -2°C° 0 mm 3 mps 776 mmHg 49%
    17:00 -2°C° 0 mm 2 mps 776 mmHg 52%
    18:00 -3°C° 0 mm 2 mps 777 mmHg 55%
    19:00 -3°C° 0 mm 2 mps 777 mmHg 59%
    20:00 -2°C° 0 mm 1 mps 777 mmHg 58%
    21:00 -2°C° 0 mm 1 mps 777 mmHg 57%
    22:00 -2°C° 0 mm 1 mps 778 mmHg 57%
    23:00 -2°C° 0 mm 1 mps 778 mmHg 56%

    23 February, Saturday

    Time Temperature Precipitation Wind Pressure Humidity
    00:00 -2°C° 0 mm 1 mps 778 mmHg 55%
    01:00 -2°C° 0 mm 1 mps 778 mmHg 54%
    02:00 -2°C° 0 mm 1 mps 777 mmHg 53%
    03:00 -3°C° 0 mm 2 mps 777 mmHg 53%
    04:00 -3°C° 0 mm 2 mps 777 mmHg 52%
    05:00 -3°C° 0 mm 2 mps 776 mmHg 51%
    06:00 -2°C° 0 mm 3 mps 776 mmHg 49%
    07:00 -2°C° 0 mm 3 mps 776 mmHg 48%
    08:00 -1°C° 0 mm 3 mps 776 mmHg 48%
    09:00 -1°C° 0 mm 3 mps 776 mmHg 47%
    10:00 -1°C° 0 mm 3 mps 776 mmHg 46%
    11:00 0°C° 0 mm 3 mps 775 mmHg 46%
    12:00 +1°C° 0 mm 3 mps 775 mmHg 46%
    13:00 +1°C° 0 mm 3 mps 774 mmHg 45%
    14:00 +1°C° 0 mm 3 mps 774 mmHg 50%
    15:00 +1°C° 0 mm 3 mps 773 mmHg 54%
    16:00 +1°C° 0 mm 3 mps 773 mmHg 59%
    17:00 +2°C° 0 mm 2 mps 773 mmHg 67%
    18:00 +2°C° 0 mm 2 mps 773 mmHg 75%
    19:00 +1°C° 0 mm 2 mps 773 mmHg 83%
    20:00 +1°C° 0 mm 2 mps 772 mmHg 87%
    21:00 +1°C° 0 mm 2 mps 772 mmHg 90%
    22:00 +1°C° 0 mm 2 mps 772 mmHg 94%
    23:00 +1°C° 0 mm 2 mps 772 mmHg 95%

    24 February, Sunday

    Time Temperature Precipitation Wind Pressure Humidity
    00:00 +1°C° 0 mm 2 mps 773 mmHg 95%
    01:00 +2°C° 0 mm 1 mps 773 mmHg 96%
    02:00 +2°C° 0 mm 1 mps 773 mmHg 96%
    03:00 +2°C° 0 mm 1 mps 773 mmHg 96%
    04:00 +1°C° 0 mm 2 mps 773 mmHg 96%
    05:00 +1°C° 0 mm 2 mps 773 mmHg 96%
    06:00 +2°C° 0 mm 1 mps 773 mmHg 96%
    07:00 +2°C° 0 mm 1 mps 773 mmHg 96%
    08:00 +3°C° 0 mm 1 mps 773 mmHg 94%
    09:00 +4°C° 0 mm 1 mps 773 mmHg 93%
    10:00 +3°C° 0 mm 2 mps 773 mmHg 91%
    11:00 +4°C° 0 mm 2 mps 773 mmHg 88%
    12:00 +5°C° 0 mm 2 mps 773 mmHg 84%
    13:00 +6°C° 0 mm 2 mps 773 mmHg 81%
    14:00 +6°C° 0 mm 2 mps 773 mmHg 84%
    15:00 +5°C° 0 mm 2 mps 772 mmHg 86%
    16:00 +5°C° 0 mm 2 mps 772 mmHg 89%
    17:00 +3°C° 0 mm 3 mps 771 mmHg 91%
    18:00 +3°C° 0 mm 3 mps 771 mmHg 93%
    19:00 +2°C° 0 mm 3 mps 771 mmHg 95%
    20:00 +2°C° 0 mm 3 mps 770 mmHg 95%
    21:00 +2°C° 0 mm 3 mps 770 mmHg 95%
    22:00 +3°C° 0 mm 3 mps 770 mmHg 95%
    23:00 +3°C° 0 mm 3 mps 769 mmHg 95%
    Show more